2020-061H (46279 NORAD) Tracking and Keplerian Element Data

This shows tracking and keplerian element data for the satellite.

Feedback or suggestion? Click here.




ElementValue
Catalog46279
Name2020-061H
Epoch Orbit304
Epoch Day267.49213302
Epoch Year2020
RAAN340.2377
Inclination97.5178
Eccentricity0.0002666
Argument of Perigee282.0047
Mean Anonmoly78.0884
Mean Motion15.09729372
Decay Rate8E-06
L11 46279U 20061H 20267.49213302 .00000800 00000-0 53465-4 0 9993
L22 46279 97.5178 340.2377 0002666 282.0047 78.0884 15.09729372 3043

Live tracking and technical data element details for 2020-061H (NORAD 46279). 2020-061H can be tracked NOW for your location showing map with azimuth and elevation plus other details from your city location.

Track the satellite on the map from your city or location and see movement details for azimuth, elevation, latitude, longitude, range, height, and movement on the map or in text.







IsCatalogInMostPopularTable: catalog: 46279, numindb: 2
Update: records affected: 1



GetName: 46279 2020-061H

Hit Count: updated at: Thu, 24 Sep 2020 18:18:11 GMT